ARIANE 44LP DEB, 41118

Orbit data source: Space-Track

ARIANE 44LP DEB, 41118 is space debris in HEO originally from a launch on Sat, 02 Mar 1991 UTC launched from the French Guiana (FRGUI). Debris objects in space refer to the collection of defunct objects orbiting the Earth. Examples of debris include non-operational satellites, rocket bodies, and fragments generated from explosions, collisions, or faulty payload assembly.

Loading next visibility...
Identifier
41118, 1991-015Q
Orbit
HEO
Country
Flag of FRFR
Related business
Manufacturer
Unknown
Mission
Spacecraft
Bus & Motor
Unknown
Mass
Unknown
Launch date (UTC)
1991-03-02 (35 years ago)
Launch vehicle
Unknown
Launch site
French Guiana (FRGUI)
Object type
Payload
Rocket body
Debris
Shape & HBR
Unknown shape, 1.1 m
Radar Cross Section
Medium (>0.1 m² and <1 m²)

Expand to show TLE details & history
Last TLE update: 20 hours ago

TLE from 20 hours ago
0 ARIANE 44LP DEB
1 41118U 91015Q   25348.77908984 -.00000055  00000-0 -10904-2 0  9993
2 41118   3.6022 203.0874 6654277 339.8378 268.9002  2.84248756125081
Epoch: 2025-12-14T18:41Z
TLE epoch observation values (Epoch: 2025-12-14T18:41:53.362Z)
Latitude
-0.43754°
Longitude
26.13585°
Altitude
22,309.835 km
Speed
2.976 km/s
True Right ascension
02h 01m 10s
True Declination
0° 26' 13"
Sunlit
Object was in daylight at epoch
Visualization orbit readout
Latitude
Unknown
Longitude
Unknown
Altitude
Unknown
Speed
Unknown
Apparent Right ascension
Unknown
Apparent Declination
Unknown
Sunlit
N/A
Visualization observer readout
Local Sidereal Time
13:22:44
Azimuth
Unknown
Elevation
Unknown
Doppler factor
Unknown
Orbital elements
Apogee altitude
28,688.868 km
Perigee altitude
666.569 km
Semi-major axis
21,055.855 km
Eccentricity
0.66543
Inclination
3.6022°
RAAN
203.0874°
Arg. of periapsis
339.8378°
True anomaly
207.32488°
Mean anomaly
268.9002°
Eccentric anomaly
236.94487°
Mean motion
0.71037 °/min
Orbital period
506.78 mins
BSTAR
-0.0010904
Loading maneuver chart data...
Computing Atmospheric mass density...

Documentation

Showing up to 5 results
|